CEB282 WADD-RPMR

Flight info

Callsign CEB282
Flight time N/A
Altitude 37000
Route TEPO1A TEPOS DCT LIPOT A450 MKS W32 MWB/N0462F400 R342 BONDA/N0463F390 R342 JINET JINET3P
Aircraft A339/H-SADE1E2E3GHIJ3J5M1P2RWXY/LB2D1

Departure

Time N/A
Airport Denpasar I Gusti Ngurah Rai International Airport (WADD)

Arrival

Time 2026-04-23 14:01
Airport General Santos International Airport (RPMR)
Time Latitude Longitude Altitude Speed Heading
2026-04-23 13:49 5.48571 125.16235 10034 ft 276 kts 360°
2026-04-23 13:50 5.50466 125.16200 9974 ft 273 kts 355°
2026-04-23 13:50 5.52284 125.16034 9619 ft 278 kts 352°
2026-04-23 13:50 5.54969 125.15715 8841 ft 292 kts 352°
2026-04-23 13:50 5.56345 125.15548 8557 ft 294 kts 352°
2026-04-23 13:51 5.58348 125.15308 8347 ft 289 kts 352°
2026-04-23 13:51 5.60337 125.15071 8136 ft 285 kts 353°
2026-04-23 13:51 5.62294 125.14839 7927 ft 282 kts 353°
2026-04-23 13:51 5.64223 125.14612 7682 ft 280 kts 353°
2026-04-23 13:52 5.66167 125.14382 7407 ft 279 kts 353°
2026-04-23 13:52 5.68721 125.14082 7048 ft 277 kts 353°
2026-04-23 13:52 5.70008 125.13930 6903 ft 275 kts 353°
2026-04-23 13:52 5.71888 125.13708 6573 ft 270 kts 353°
2026-04-23 13:53 5.74329 125.13420 5999 ft 264 kts 353°
2026-04-23 13:53 5.75551 125.13276 5695 ft 261 kts 353°
2026-04-23 13:53 5.77924 125.12997 5107 ft 254 kts 353°
2026-04-23 13:53 5.79086 125.12864 4798 ft 250 kts 353°
2026-04-23 13:54 5.80780 125.12672 4431 ft 242 kts 353°
2026-04-23 13:54 5.82425 125.12480 4071 ft 235 kts 353°
2026-04-23 13:54 5.84016 125.12291 3727 ft 228 kts 353°
2026-04-23 13:54 5.85584 125.12101 3391 ft 222 kts 353°
2026-04-23 13:55 5.87079 125.11919 3224 ft 209 kts 353°
2026-04-23 13:55 5.88455 125.11751 3174 ft 190 kts 353°
2026-04-23 13:55 5.89711 125.11597 3139 ft 170 kts 353°
2026-04-23 13:55 5.91169 125.11419 3069 ft 151 kts 353°
2026-04-23 13:56 5.91865 125.11334 3050 ft 151 kts 353°
2026-04-23 13:56 5.93255 125.11166 2914 ft 151 kts 353°
2026-04-23 13:56 5.93951 125.11081 2755 ft 150 kts 353°
2026-04-23 13:56 5.94991 125.10953 2527 ft 149 kts 353°
2026-04-23 13:57 5.96020 125.10828 2312 ft 149 kts 353°
2026-04-23 13:57 5.97043 125.10704 2096 ft 149 kts 353°
2026-04-23 13:57 5.98075 125.10578 1878 ft 148 kts 353°
2026-04-23 13:57 5.99095 125.10453 1662 ft 148 kts 353°
2026-04-23 13:58 5.99846 125.10362 1504 ft 147 kts 353°
2026-04-23 13:59 6.00190 125.10320 1431 ft 147 kts 353°
2026-04-23 13:59 6.01189 125.10198 1218 ft 147 kts 353°
2026-04-23 14:00 6.02211 125.10067 999 ft 146 kts 353°
2026-04-23 14:00 6.03215 125.09933 777 ft 146 kts 353°
2026-04-23 14:00 6.04553 125.09770 532 ft 145 kts 353°
2026-04-23 14:00 6.05194 125.09696 520 ft 127 kts 348°
2026-04-23 14:01 6.05886 125.09605 520 ft 75 kts 353°
2026-04-23 14:01 6.06237 125.09563 520 ft 32 kts 353°
2026-04-23 14:01 6.06363 125.09540 519 ft 5 kts 335°
2026-04-23 14:01 6.06374 125.09538 519 ft 0 kts
2026-04-23 14:02 6.06377 125.09538 519 ft 0 kts
2026-04-23 14:02 6.06380 125.09540 519 ft 0 kts 26°
2026-04-23 14:02 6.06382 125.09543 519 ft 0 kts 58°
2026-04-23 14:03 6.06381 125.09551 519 ft 1 kts 111°
2026-04-23 14:03 6.06369 125.09555 519 ft 3 kts 169°
2026-04-23 14:03 6.06333 125.09557 519 ft 7 kts 177°
2026-04-23 14:03 6.06272 125.09561 519 ft 11 kts 174°
2026-04-23 14:04 6.06162 125.09574 520 ft 16 kts 172°
2026-04-23 14:04 6.06043 125.09589 519 ft 17 kts 173°
2026-04-23 14:04 6.05924 125.09603 520 ft 17 kts 173°
2026-04-23 14:04 6.05831 125.09643 520 ft 12 kts 115°
2026-04-23 14:05 6.05830 125.09731 519 ft 13 kts 84°
2026-04-23 14:05 6.05837 125.09824 519 ft 13 kts 99°
2026-04-23 14:05 6.05801 125.09866 519 ft 7 kts 158°
2026-04-23 14:05 6.05776 125.09892 519 ft 5 kts 103°
2026-04-23 14:06 6.05774 125.09927 519 ft 5 kts 86°
2026-04-23 14:06 6.05775 125.09940 520 ft 1 kts 86°
2026-04-23 14:06 6.05776 125.09948 519 ft 0 kts 86°
2026-04-23 14:06 6.05776 125.09949 519 ft 0 kts 86°